PAL896 RPLL-RCTP

Flight info

Callsign PAL896
Flight time N/A
Altitude 35000
Route ALPAS2R ALPAS M646 POTIB Q14 TNN TNN1A
Aircraft A321/M-SDE3FGHIRWY/LB1

Departure

Time 2026-05-07 04:37
Airport Ninoy Aquino International Airport (RPLL)

Arrival

Time N/A
Airport Taiwan Taoyuan International Airport (RCTP)
Time Latitude Longitude Altitude Speed Heading
2026-05-07 04:12 14.50580 121.00702 82 ft 0 kts 239°
2026-05-07 04:26 14.50587 121.00714 82 ft 2 kts 239°
2026-05-07 04:27 14.50595 121.00727 82 ft 2 kts 239°
2026-05-07 04:27 14.50603 121.00741 82 ft 2 kts 239°
2026-05-07 04:27 14.50610 121.00753 82 ft 0 kts 239°
2026-05-07 04:27 14.50614 121.00759 82 ft 1 kts 206°
2026-05-07 04:28 14.50622 121.00760 82 ft 0 kts 153°
2026-05-07 04:28 14.50627 121.00756 82 ft 1 kts 147°
2026-05-07 04:28 14.50628 121.00755 82 ft 0 kts 148°
2026-05-07 04:31 14.50628 121.00756 82 ft 0 kts 148°
2026-05-07 04:31 14.50625 121.00758 82 ft 0 kts 148°
2026-05-07 04:31 14.50618 121.00761 82 ft 1 kts 148°
2026-05-07 04:31 14.50606 121.00770 82 ft 2 kts 148°
2026-05-07 04:32 14.50589 121.00780 82 ft 3 kts 150°
2026-05-07 04:32 14.50567 121.00793 82 ft 5 kts 151°
2026-05-07 04:32 14.50498 121.00828 82 ft 13 kts 168°
2026-05-07 04:32 14.50404 121.00810 82 ft 13 kts 199°
2026-05-07 04:33 14.50347 121.00738 82 ft 13 kts 240°
2026-05-07 04:33 14.50300 121.00654 82 ft 13 kts 240°
2026-05-07 04:33 14.50252 121.00567 82 ft 14 kts 240°
2026-05-07 04:33 14.50202 121.00478 82 ft 14 kts 241°
2026-05-07 04:34 14.50153 121.00389 82 ft 14 kts 240°
2026-05-07 04:34 14.50102 121.00300 82 ft 14 kts 239°
2026-05-07 04:34 14.50069 121.00240 82 ft 14 kts 240°
2026-05-07 04:35 14.49959 121.00042 82 ft 14 kts 242°
2026-05-07 04:35 14.49876 120.99964 82 ft 11 kts 166°
2026-05-07 04:35 14.49808 121.00013 82 ft 11 kts 127°
2026-05-07 04:35 14.49822 121.00082 82 ft 2 kts 59°
2026-05-07 04:36 14.49822 121.00083 82 ft 0 kts 59°
2026-05-07 04:36 14.49880 121.00187 82 ft 49 kts 61°
2026-05-07 04:36 14.50316 121.00974 82 ft 136 kts 60°
2026-05-07 04:37 14.50874 121.01971 214 ft 174 kts 60°
2026-05-07 04:37 14.51455 121.03018 905 ft 168 kts 63°
2026-05-07 04:37 14.51994 121.04054 1605 ft 164 kts 62°
2026-05-07 04:37 14.52571 121.05051 2194 ft 158 kts 60°
2026-05-07 04:38 14.53144 121.06015 2472 ft 162 kts 62°
2026-05-07 04:38 14.53719 121.07055 2689 ft 173 kts 62°
2026-05-07 04:38 14.54331 121.08173 2910 ft 184 kts 62°
2026-05-07 04:38 14.54988 121.09364 3141 ft 196 kts 62°
2026-05-07 04:39 14.55683 121.10619 3367 ft 209 kts 62°
2026-05-07 04:39 14.56447 121.11967 3559 ft 227 kts 57°
2026-05-07 04:39 14.57683 121.13098 3797 ft 248 kts 27°
2026-05-07 04:39 14.58806 121.13448 3986 ft 263 kts
2026-05-07 04:40 14.61303 121.13463 4675 ft 274 kts
2026-05-07 04:40 14.63235 121.13457 5355 ft 277 kts
2026-05-07 04:40 14.65169 121.13463 6047 ft 279 kts
2026-05-07 04:40 14.67100 121.13474 6748 ft 281 kts
2026-05-07 04:41 14.68419 121.13477 7213 ft 283 kts
2026-05-07 04:41 14.71047 121.13125 8111 ft 289 kts 348°
2026-05-07 04:41 14.72976 121.12511 8769 ft 292 kts 343°
2026-05-07 04:41 14.74893 121.11821 9392 ft 295 kts 342°
2026-05-07 04:42 14.76830 121.11110 10035 ft 298 kts 342°
2026-05-07 04:42 14.78832 121.10380 10495 ft 308 kts 342°
2026-05-07 04:42 14.80916 121.09627 10776 ft 324 kts 342°
2026-05-07 04:42 14.82347 121.09113 10972 ft 332 kts 342°
2026-05-07 04:43 14.85333 121.08038 11535 ft 342 kts 342°
2026-05-07 04:43 14.87575 121.07226 11797 ft 344 kts 341°
2026-05-07 04:43 14.89804 121.06287 11854 ft 345 kts 337°
2026-05-07 04:43 14.91982 121.05174 12019 ft 352 kts 333°
2026-05-07 04:44 14.93425 121.04369 12370 ft 354 kts 333°
2026-05-07 04:44 14.95604 121.03139 13013 ft 353 kts 332°
2026-05-07 04:44 14.98491 121.01504 13784 ft 356 kts 332°
2026-05-07 04:44 14.99917 121.00696 14120 ft 357 kts 332°
2026-05-07 04:45 15.02855 120.99035 14843 ft 360 kts 333°
2026-05-07 04:45 15.04312 120.98210 15176 ft 362 kts 333°
2026-05-07 04:45 15.07272 120.96538 15868 ft 365 kts 332°
2026-05-07 04:45 15.08768 120.95693 16184 ft 367 kts 332°
2026-05-07 04:46 15.11774 120.93993 16806 ft 370 kts 332°
2026-05-07 04:46 15.13278 120.93143 17138 ft 371 kts 332°
2026-05-07 04:46 15.16309 120.91430 17760 ft 375 kts 332°
2026-05-07 04:46 15.18619 120.90124 18200 ft 377 kts 332°
2026-05-07 04:47 15.20148 120.89259 18497 ft 379 kts 332°
2026-05-07 04:47 15.22459 120.87952 18941 ft 381 kts 332°
2026-05-07 04:47 15.24795 120.86630 19395 ft 383 kts 332°
2026-05-07 04:47 15.27162 120.85291 19838 ft 386 kts 332°
2026-05-07 04:48 15.30311 120.83507 20401 ft 389 kts 332°
2026-05-07 04:48 15.32693 120.82158 20799 ft 391 kts 332°
2026-05-07 04:48 15.34301 120.81247 21074 ft 393 kts 332°
2026-05-07 04:48 15.36707 120.79884 21466 ft 395 kts 332°
2026-05-07 04:49 15.39096 120.78529 21843 ft 398 kts 332°
2026-05-07 04:49 15.42376 120.76669 22352 ft 401 kts 332°
2026-05-07 04:49 15.43988 120.75755 22606 ft 402 kts 332°
2026-05-07 04:49 15.47314 120.73966 23118 ft 404 kts 335°
2026-05-07 04:50 15.49922 120.72839 23502 ft 406 kts 340°
2026-05-07 04:50 15.51722 120.72202 23756 ft 407 kts 343°
2026-05-07 04:50 15.54442 120.71369 24127 ft 408 kts 344°
2026-05-07 04:50 15.58096 120.70293 24598 ft 410 kts 344°
2026-05-07 04:51 15.59906 120.69761 24826 ft 411 kts 344°
2026-05-07 04:51 15.62663 120.68948 25163 ft 413 kts 344°
2026-05-07 04:51 15.65436 120.68128 25496 ft 415 kts 344°
2026-05-07 04:51 15.69142 120.67027 25932 ft 417 kts 344°
2026-05-07 04:52 15.71032 120.66463 26150 ft 418 kts 343°
2026-05-07 04:52 15.74778 120.65339 26591 ft 420 kts 343°
2026-05-07 04:52 15.76629 120.64784 26807 ft 421 kts 343°
2026-05-07 04:52 15.80402 120.63652 27247 ft 423 kts 343°
2026-05-07 04:53 15.83236 120.62801 27564 ft 424 kts 343°
2026-05-07 04:53 15.86078 120.61948 27867 ft 426 kts 343°
2026-05-07 04:53 15.88008 120.61369 28070 ft 427 kts 343°
2026-05-07 04:53 15.90875 120.60509 28363 ft 429 kts 343°
2026-05-07 04:54 15.94728 120.59351 28749 ft 431 kts 343°
2026-05-07 04:54 15.96620 120.58784 28935 ft 432 kts 343°
2026-05-07 04:54 15.99550 120.57903 29208 ft 434 kts 343°
2026-05-07 04:54 16.02462 120.57028 29468 ft 436 kts 343°
2026-05-07 04:55 16.05381 120.56151 29717 ft 438 kts 343°
2026-05-07 04:55 16.08330 120.55263 29960 ft 440 kts 343°
2026-05-07 04:55 16.12267 120.54079 30291 ft 443 kts 343°
2026-05-07 04:55 16.15217 120.53192 30538 ft 444 kts 343°
2026-05-07 04:56 16.18182 120.52300 30839 ft 444 kts 343°
2026-05-07 04:56 16.21180 120.51398 31180 ft 443 kts 343°
2026-05-07 04:56 16.23130 120.50810 31404 ft 443 kts 343°
2026-05-07 04:56 16.27071 120.49624 31858 ft 441 kts 343°
2026-05-07 04:57 16.30019 120.48735 32187 ft 441 kts 343°
2026-05-07 04:57 16.31992 120.48140 32400 ft 440 kts 343°
2026-05-07 04:57 16.35928 120.46954 32828 ft 439 kts 342°
2026-05-07 04:57 16.37875 120.46367 33052 ft 439 kts 342°
2026-05-07 04:58 16.41811 120.45179 33483 ft 439 kts 342°
2026-05-07 04:58 16.44761 120.44288 33781 ft 439 kts 342°
2026-05-07 04:58 16.47694 120.43402 34046 ft 440 kts 342°
2026-05-07 04:58 16.50624 120.42517 34293 ft 441 kts 342°
2026-05-07 04:59 16.53599 120.41619 34549 ft 442 kts 342°
2026-05-07 04:59 16.56558 120.40725 34815 ft 442 kts 342°
2026-05-07 04:59 16.59524 120.39828 34940 ft 443 kts 343°
2026-05-07 04:59 16.62493 120.38930 34938 ft 443 kts 343°
2026-05-07 05:00 16.68483 120.37430 34929 ft 443 kts 349°
2026-05-07 05:00 16.74622 120.36691 34921 ft 444 kts 355°
2026-05-07 05:01 16.79808 120.36684 34922 ft 446 kts
2026-05-07 05:01 16.87036 120.37421 34926 ft 447 kts
2026-05-07 05:02 16.93215 120.38159 34924 ft 446 kts
2026-05-07 05:02 16.98367 120.38771 34928 ft 446 kts
2026-05-07 05:03 17.04536 120.39499 34917 ft 445 kts
2026-05-07 05:03 17.11762 120.40350 34919 ft 445 kts
2026-05-07 05:04 17.17892 120.41074 34911 ft 445 kts
2026-05-07 05:04 17.18949 120.41200 34912 ft 446 kts
2026-05-07 05:05 17.30235 120.42527 34902 ft 446 kts
2026-05-07 05:05 17.36384 120.43246 34907 ft 445 kts
2026-05-07 05:06 17.42541 120.43971 34914 ft 445 kts
2026-05-07 05:06 17.48712 120.44700 34929 ft 444 kts
2026-05-07 05:07 17.54863 120.45427 34930 ft 444 kts
2026-05-07 05:07 17.61023 120.46156 34923 ft 444 kts
2026-05-07 05:08 17.67158 120.46883 34913 ft 444 kts
2026-05-07 05:08 17.73337 120.47609 34908 ft 445 kts
2026-05-07 05:09 17.79493 120.48334 34898 ft 444 kts
2026-05-07 05:09 17.85629 120.49061 34892 ft 444 kts
2026-05-07 05:10 17.91798 120.49793 34888 ft 443 kts
2026-05-07 05:10 17.97916 120.50521 34884 ft 443 kts
2026-05-07 05:11 18.04074 120.51251 34881 ft 443 kts
2026-05-07 05:11 18.10222 120.51981 34881 ft 443 kts
2026-05-07 05:12 18.16365 120.52710 34882 ft 443 kts
2026-05-07 05:12 18.22517 120.53268 34881 ft 443 kts
2026-05-07 05:13 18.28688 120.53754 34883 ft 442 kts
2026-05-07 05:13 18.34813 120.54240 34885 ft 442 kts
2026-05-07 05:14 18.40995 120.54735 34886 ft 442 kts
2026-05-07 05:14 18.47129 120.55227 34888 ft 442 kts
2026-05-07 05:15 18.53267 120.55721 34890 ft 441 kts
2026-05-07 05:15 18.59363 120.56213 34890 ft 441 kts
2026-05-07 05:16 18.65518 120.56709 34888 ft 441 kts
2026-05-07 05:16 18.71636 120.57198 34883 ft 442 kts
2026-05-07 05:17 18.77791 120.57690 34880 ft 441 kts
2026-05-07 05:17 18.83912 120.58181 34880 ft 441 kts
2026-05-07 05:18 18.90041 120.58676 34881 ft 440 kts
2026-05-07 05:18 18.96139 120.59168 34882 ft 440 kts
2026-05-07 05:19 19.02248 120.59663 34885 ft 441 kts
2026-05-07 05:19 19.08389 120.60159 34888 ft 441 kts
2026-05-07 05:20 19.14540 120.60654 34890 ft 441 kts
2026-05-07 05:20 19.20628 120.61146 34892 ft 440 kts
2026-05-07 05:21 19.29836 120.61891 34894 ft 440 kts
2026-05-07 05:22 19.35914 120.62386 34895 ft 440 kts
2026-05-07 05:22 19.42043 120.62884 34896 ft 440 kts
2026-05-07 05:23 19.48159 120.63374 34898 ft 441 kts
2026-05-07 05:23 19.54270 120.63866 34900 ft 440 kts
2026-05-07 05:24 19.60400 120.64363 34899 ft 440 kts
2026-05-07 05:24 19.66523 120.64861 34903 ft 440 kts
2026-05-07 05:25 19.72608 120.65356 34902 ft 440 kts
2026-05-07 05:25 19.78731 120.65855 34902 ft 440 kts
2026-05-07 05:26 19.84835 120.66353 34903 ft 441 kts
2026-05-07 05:26 19.90964 120.66852 34903 ft 440 kts
2026-05-07 05:27 19.97090 120.67351 34897 ft 440 kts
2026-05-07 05:27 20.03213 120.67851 34898 ft 440 kts
2026-05-07 05:28 20.09333 120.68351 34900 ft 439 kts
2026-05-07 05:28 20.15426 120.68849 34900 ft 440 kts
2026-05-07 05:29 20.21525 120.69349 34902 ft 440 kts
2026-05-07 05:29 20.27653 120.69852 34903 ft 439 kts
2026-05-07 05:30 20.33742 120.70352 34906 ft 439 kts
2026-05-07 05:30 20.39861 120.70854 34906 ft 438 kts
2026-05-07 05:31 20.45929 120.71352 34906 ft 438 kts
2026-05-07 05:31 20.52019 120.71853 34907 ft 438 kts
2026-05-07 05:32 20.58094 120.72353 34911 ft 438 kts
2026-05-07 05:32 20.64193 120.72855 34911 ft 438 kts
2026-05-07 05:33 20.70290 120.73360 34914 ft 438 kts
2026-05-07 05:33 20.76369 120.73862 34921 ft 437 kts
2026-05-07 05:34 20.82403 120.74361 34927 ft 436 kts
2026-05-07 05:34 20.87482 120.74782 34927 ft 436 kts